Theta_e
294 292 290 289 288 288 287 287 286 286 285 285 285 285 284 284 285 285 284 284 283 283 283 283 283 282 282 282 281 281 281 281
295 293 291 290 288 288 287 286 286 285 285 285 285 284 285 285 285 285 285 285 284 284 283 282 282 281 281 280 280 280 280 280
296 294 291 290 289 288 287 286 286 285 285 285 285 285 285 285 286 286 285 285 284 283 282 282 281 280 280 279 279 278 279 279
297 295 293 291 289 288 288 287 286 285 285 284 284 285 285 286 285 285 284 283 283 282 281 280 280 279 278 277 277 278 278 278
298 297 295 293 290 288 287 287 286 285 284 284 284 285 285 285 285 284 283 282 281 281 280 279 279 278 276 277 277 277 277 277
298 297 296 294 292 290 288 286 285 285 284 284 285 285 285 284 283 283 282 280 279 279 279 278 278 276 276 277 277 277 276 276
298 296 295 294 293 291 289 287 285 285 285 284 284 284 284 284 283 281 280 279 279 278 278 277 277 276 276 276 276 275 275 275
297 295 294 293 292 291 290 288 287 286 285 285 284 284 284 283 282 281 279 279 278 277 276 276 276 276 275 274 274 274 274 273
295 294 292 291 291 290 289 287 288 287 286 285 285 284 283 282 281 280 279 278 277 276 276 274 275 275 274 274 274 273 273 272
294 292 291 291 290 289 288 287 287 287 286 286 285 284 283 282 280 279 278 277 276 275 275 274 275 274 273 272 273 273 273 272
289 289 289 289 289 289 288 287 287 287 287 286 284 283 283 281 279 278 278 276 275 274 273 274 274 273 272 272 273 273 273 273
288 289 289 289 289 288 288 287 288 287 286 285 284 283 281 279 278 277 276 275 274 273 273 273 272 272 271 271 273 273 274 274
287 288 288 288 288 287 287 289 287 286 285 284 283 281 279 278 277 276 274 273 272 271 272 271 271 271 271 271 272 273 274 274
287 288 288 288 287 287 288 287 286 285 284 282 280 278 277 276 275 274 273 271 271 270 271 270 269 270 270 271 272 273 273 273
286 286 286 287 286 287 287 286 285 284 281 279 278 276 275 274 273 273 272 271 270 270 270 270 270 270 270 271 272 273 273 274
286 286 287 287 287 286 286 285 283 281 279 277 276 275 274 273 272 272 272 271 270 270 270 270 271 271 272 273 273 273 274 272
286 286 287 286 286 285 285 283 281 279 276 275 274 273 272 270 270 271 269 269 270 271 272 272 272 273 272 272 273 273 271 269
286 287 286 285 284 283 281 280 278 277 275 274 273 271 270 269 269 269 268 268 268 269 269 270 271 271 271 271 272 270 268 266
284 284 283 282 280 279 278 276 275 275 274 273 271 270 269 268 268 267 267 267 267 267 266 266 267 269 269 270 270 267 265 264
279 278 277 276 275 275 274 274 273 272 271 270 269 268 267 266 265 264 264 264 264 265 266 265 265 265 267 267 265 263 262 262
Wind_Speed
20 20 19 17 16 15 15 16 17 17 16 16 15 15 15 13 11 10 9 8 7 7 7 8 9 9 10 10 10 11 12 11
20 20 19 18 18 17 17 17 18 18 17 18 16 15 13 12 10 8 6 4 2 3 4 6 7 9 10 10 10 12 12 11
21 21 21 21 19 20 19 19 19 18 19 18 17 16 13 11 10 8 6 3 1 2 4 6 8 10 10 9 11 11 12 13
20 22 23 22 21 22 21 20 19 20 20 18 18 16 14 12 10 8 7 5 3 3 5 6 8 9 9 9 11 11 12 13
16 22 21 22 22 23 22 21 22 23 21 20 19 19 17 15 12 11 9 7 5 4 6 7 9 9 8 10 10 12 12 13
15 19 21 21 22 22 21 23 23 24 22 22 22 20 18 17 16 13 11 8 7 7 9 9 9 8 10 10 12 13 15 15
13 17 20 21 23 22 23 24 24 23 25 23 23 24 22 19 18 15 13 11 10 10 10 10 9 11 10 11 13 14 15 16
14 17 17 19 19 21 24 24 30 32 31 29 27 26 24 23 21 17 15 13 12 12 12 12 11 12 11 12 13 15 15 16
12 13 13 14 16 16 18 23 29 31 31 31 29 29 27 25 23 19 17 15 14 14 14 13 13 12 13 13 14 14 15 16
13 13 13 13 13 13 14 18 23 27 31 32 31 31 30 28 23 20 18 16 15 15 15 15 14 13 13 12 13 14 15 16
14 14 13 13 14 15 16 18 23 26 28 29 29 31 32 27 23 21 19 17 15 16 16 16 15 13 12 11 12 14 16 17
14 16 17 17 17 17 18 21 21 20 20 22 24 27 27 25 22 20 18 17 16 17 17 16 14 12 11 10 12 14 17 20
15 19 20 21 20 21 22 21 19 18 19 21 22 23 24 22 20 19 17 17 16 16 16 14 12 11 10 11 12 14 18 21
22 22 23 24 24 24 26 22 20 20 20 21 21 22 21 21 20 18 17 16 14 13 12 11 11 11 11 11 11 14 18 20
22 22 25 28 27 28 25 21 21 22 22 21 22 22 22 21 20 20 19 16 14 12 12 10 10 10 9 10 13 13 17 17
23 26 31 32 32 29 25 23 24 23 22 22 22 22 20 21 19 19 19 18 16 15 13 12 12 10 10 14 17 18 18 18
25 26 29 27 25 26 26 26 26 24 22 20 19 18 18 16 16 19 18 15 16 17 16 15 17 16 14 16 17 18 12 13
25 26 24 21 21 21 22 24 25 23 17 17 19 16 16 16 14 13 12 15 14 15 15 14 16 15 15 15 16 12 13 13
17 17 16 16 16 16 18 20 20 18 17 16 15 15 14 15 14 13 11 11 11 14 14 12 13 14 13 14 13 14 12 11
9 9 8 9 9 11 13 15 15 14 13 14 14 14 14 13 12 12 11 11 11 13 14 13 10 10 12 11 10 11 11 10
Wind_Direction
188 185 185 181 177 169 164 166 161 158 155 150 149 143 139 132 127 120 108 88 68 45 29 13 2 354 348 344 340 340 337 335
193 191 189 185 184 179 179 177 175 171 167 160 159 157 149 146 138 124 115 109 77 22 359 353 346 342 337 332 330 330 328 328
195 190 190 193 190 190 190 188 187 180 177 175 170 168 164 162 158 157 162 171 209 333 338 337 335 332 326 322 323 322 320 318
196 199 197 196 196 198 197 197 192 189 186 184 185 181 182 185 183 184 191 208 240 289 310 319 323 323 316 313 310 308 307 307
200 203 204 202 201 203 203 201 199 196 194 194 197 196 197 199 201 205 215 227 248 277 299 307 313 312 300 304 300 299 298 300
202 204 202 203 206 208 209 204 202 200 201 205 207 206 206 208 212 219 229 235 251 268 284 293 304 292 296 299 301 301 302 301
200 199 202 207 210 210 210 209 204 204 210 210 211 214 215 218 222 226 232 244 256 266 276 283 292 297 304 303 302 299 299 300
198 201 204 209 210 211 213 208 213 215 219 220 221 220 220 221 225 232 238 248 259 267 274 280 291 303 305 299 299 296 294 297
191 191 198 203 208 213 214 213 220 221 225 228 228 227 224 225 228 233 241 252 260 266 273 277 293 303 303 300 299 292 293 295
184 182 186 192 195 198 203 212 218 224 229 232 231 229 226 228 229 236 244 253 259 268 272 281 295 303 305 300 297 293 294 297
178 177 181 185 187 187 196 204 216 225 233 237 236 234 231 230 231 238 246 255 262 268 275 286 295 301 302 295 294 294 300 303
183 190 197 188 186 195 206 216 229 233 236 237 235 232 227 225 229 238 247 256 265 274 280 285 290 301 309 293 293 296 302 302
199 207 205 198 203 213 218 228 228 228 226 226 223 218 218 221 228 236 247 258 267 274 282 285 287 298 308 295 292 295 298 300
209 211 207 210 217 221 230 230 226 221 221 219 214 214 218 221 228 236 245 252 259 263 268 274 282 289 302 303 300 303 301 299
213 218 221 222 227 230 235 233 227 222 217 213 213 214 220 225 231 236 239 244 249 253 262 270 278 285 294 299 307 303 304 301
216 223 233 235 235 235 238 234 224 219 214 213 214 217 224 231 236 241 248 248 248 253 263 274 279 282 294 302 302 301 303 312
225 230 239 243 246 244 241 229 221 213 210 211 212 219 225 234 247 250 251 255 254 260 262 270 276 282 285 291 293 300 316 309
228 235 243 248 248 242 231 222 217 214 213 214 215 221 225 231 237 249 256 249 252 260 262 261 269 275 281 283 290 293 310 309
240 242 245 243 238 232 218 212 215 217 222 220 224 228 232 235 238 240 242 253 260 263 262 265 272 274 271 279 282 294 296 294
225 226 225 214 206 203 204 205 209 215 224 230 236 242 243 246 251 250 247 248 256 270 277 275 259 269 268 263 265 276 285 286